Location: Poughquag
(41.6090°N, 73.6820°W)
Time: 03:24:50
(UTC-04:00)

Transit 2A - Pass Details

Date: 30 May 2020
Orbit: 592 x 967 km, 66.7° (Epoch: 06 July)

Event Time Altitude Azimuth Distance (km) Brightness Sun altitude
Rises 13:31:10 0° 186° (S) 2,967 9.3 68.7°
Reaches altitude 10° 13:33:29 10° 179° (S) 2,109 8.7 68.5°
Maximum altitude 13:37:55 39° 111° (ESE) 1,091 7.4 68.1°
Drops below altitude 10° 13:42:49 10° 44° (NE) 2,347 8.4 67.6°
Sets 13:45:30 0° 37° (NE) 3,347 9.1 67.4°
